Time,TemperatureF,DewpointF,PressureIn,WindDirection,WindDirectionDegrees,WindSpeedMPH,WindSpeedGustMPH,Humidity,HourlyPrecipIn,Conditions,Clouds,dailyrainin,SolarRadiationWatts/m^2,SoftwareType,DateUTC
2013-05-03 00:03:00,54.1,49.8,30.15,ENE,63,4.0,7.0,85,0.00,,,0.00,0.0,meteohub,2013-05-03 10:03:00,
2013-05-03 00:08:00,53.4,49.1,30.15,ENE,78,1.0,7.0,85,0.00,,,0.00,0.0,meteohub,2013-05-03 10:08:00,
2013-05-03 00:13:00,52.7,48.4,30.15,East,87,5.0,7.0,85,0.00,,,0.00,0.0,meteohub,2013-05-03 10:13:00,
2013-05-03 00:18:00,52.7,48.9,30.15,East,97,2.0,6.0,87,0.00,,,0.00,0.0,meteohub,2013-05-03 10:18:00,
2013-05-03 00:23:00,53.1,48.9,30.14,ENE,78,3.0,5.0,86,0.00,,,0.00,0.0,meteohub,2013-05-03 10:23:00,
2013-05-03 00:28:00,53.2,49.5,30.14,ENE,77,4.0,7.0,87,0.00,,,0.00,0.0,meteohub,2013-05-03 10:28:00,
2013-05-03 00:33:00,53.1,49.3,30.14,East,82,2.0,7.0,87,0.00,,,0.00,0.0,meteohub,2013-05-03 10:33:00,
2013-05-03 00:38:00,53.1,48.9,30.14,East,94,1.0,7.0,86,0.00,,,0.00,0.0,meteohub,2013-05-03 10:38:00,
2013-05-03 00:43:00,52.9,48.7,30.14,East,86,1.0,6.0,86,0.00,,,0.00,0.0,meteohub,2013-05-03 10:43:00,
2013-05-03 00:48:00,52.5,48.4,30.14,East,82,2.0,6.0,86,0.00,,,0.00,0.0,meteohub,2013-05-03 10:48:00,
2013-05-03 00:53:00,52.3,48.6,30.14,East,91,2.0,6.0,87,0.00,,,0.00,0.0,meteohub,2013-05-03 10:53:00,
2013-05-03 00:59:00,52.3,48.9,30.14,ENE,78,2.0,5.0,88,0.00,,,0.00,0.0,meteohub,2013-05-03 10:59:00,
2013-05-03 01:04:00,53.1,49.8,30.13,East,88,2.0,5.0,89,0.00,,,0.00,0.0,meteohub,2013-05-03 11:04:00,
2013-05-03 01:09:00,53.8,50.0,30.13,East,80,3.0,6.0,87,0.00,,,0.00,0.0,meteohub,2013-05-03 11:09:00,
2013-05-03 01:14:00,54.1,50.0,30.13,ENE,72,3.0,6.0,86,0.00,,,0.00,0.0,meteohub,2013-05-03 11:14:00,
2013-05-03 01:20:00,54.1,49.8,30.13,ENE,74,4.0,7.0,85,0.00,,,0.00,0.0,meteohub,2013-05-03 11:20:00,
2013-05-03 01:25:00,53.8,49.5,30.13,East,89,2.0,7.0,85,0.00,,,0.00,0.0,meteohub,2013-05-03 11:25:00,
2013-05-03 01:31:00,54.1,49.5,30.13,East,92,5.0,7.0,84,0.00,,,0.00,0.0,meteohub,2013-05-03 11:31:00,
2013-05-03 01:36:00,54.3,49.6,30.12,East,95,5.0,7.0,84,0.00,,,0.00,0.0,meteohub,2013-05-03 11:36:00,
2013-05-03 01:41:00,54.3,49.6,30.12,East,90,2.0,7.0,84,0.00,,,0.00,0.0,meteohub,2013-05-03 11:41:00,
2013-05-03 01:46:00,54.1,49.8,30.12,East,90,2.0,7.0,85,0.00,,,0.00,0.0,meteohub,2013-05-03 11:46:00,
2013-05-03 01:51:00,53.6,49.5,30.12,East,82,3.0,6.0,86,0.00,,,0.00,0.0,meteohub,2013-05-03 11:51:00,
2013-05-03 01:56:00,53.2,48.9,30.12,East,84,2.0,5.0,85,0.00,,,0.00,0.0,meteohub,2013-05-03 11:56:00,
2013-05-03 02:01:00,53.1,49.3,30.11,East,82,3.0,5.0,87,0.00,,,0.00,0.0,meteohub,2013-05-03 12:01:00,
2013-05-03 02:06:00,53.2,49.1,30.11,East,81,2.0,7.0,86,0.00,,,0.00,0.0,meteohub,2013-05-03 12:06:00,
2013-05-03 02:11:00,53.2,48.9,30.11,East,90,5.0,7.0,85,0.00,,,0.00,0.0,meteohub,2013-05-03 12:11:00,
2013-05-03 02:16:00,53.8,49.5,30.11,East,82,3.0,7.0,85,0.00,,,0.00,0.0,meteohub,2013-05-03 12:16:00,
2013-05-03 02:21:00,53.4,48.7,30.11,East,81,2.0,7.0,84,0.00,,,0.00,0.0,meteohub,2013-05-03 12:21:00,
2013-05-03 02:26:00,53.2,48.6,30.11,East,90,2.0,7.0,84,0.00,,,0.00,0.0,meteohub,2013-05-03 12:26:00,
2013-05-03 02:32:00,53.2,48.6,30.11,East,96,3.0,5.0,84,0.00,,,0.00,0.0,meteohub,2013-05-03 12:32:00,
2013-05-03 02:37:00,53.4,48.4,30.11,East,98,3.0,6.0,83,0.00,,,0.00,0.0,meteohub,2013-05-03 12:37:00,
2013-05-03 02:42:00,53.2,48.6,30.11,East,87,3.0,6.0,84,0.00,,,0.00,0.0,meteohub,2013-05-03 12:42:00,
2013-05-03 02:47:00,52.7,48.4,30.10,ENE,69,4.0,6.0,85,0.00,,,0.00,0.0,meteohub,2013-05-03 12:47:00,
2013-05-03 02:52:00,52.3,47.7,30.10,East,87,3.0,5.0,84,0.00,,,0.00,0.0,meteohub,2013-05-03 12:52:00,
2013-05-03 02:57:00,52.2,47.8,30.10,East,82,3.0,5.0,85,0.00,,,0.00,0.0,meteohub,2013-05-03 12:57:00,
2013-05-03 03:02:00,52.3,48.0,30.10,East,97,2.0,6.0,85,0.00,,,0.00,0.0,meteohub,2013-05-03 13:02:00,
2013-05-03 03:07:00,52.2,47.8,30.10,East,84,3.0,6.0,85,0.00,,,0.00,0.0,meteohub,2013-05-03 13:07:00,
2013-05-03 03:12:00,52.2,47.8,30.11,East,85,2.0,6.0,85,0.00,,,0.00,0.0,meteohub,2013-05-03 13:12:00,
2013-05-03 03:17:00,51.6,46.9,30.10,East,88,3.0,5.0,84,0.00,,,0.00,0.0,meteohub,2013-05-03 13:17:00,
2013-05-03 03:22:00,51.3,46.9,30.11,East,86,1.0,5.0,85,0.00,,,0.00,0.0,meteohub,2013-05-03 13:22:00,
2013-05-03 03:27:00,51.4,47.1,30.11,East,79,2.0,5.0,85,0.00,,,0.00,0.0,meteohub,2013-05-03 13:27:00,
2013-05-03 03:32:00,51.8,47.1,30.11,East,86,3.0,5.0,84,0.00,,,0.00,0.0,meteohub,2013-05-03 13:32:00,
2013-05-03 03:37:00,51.6,46.9,30.11,East,99,2.0,5.0,84,0.00,,,0.00,0.0,meteohub,2013-05-03 13:37:00,
2013-05-03 03:42:00,50.9,46.9,30.11,East,94,1.0,5.0,86,0.00,,,0.00,0.0,meteohub,2013-05-03 13:42:00,
2013-05-03 03:47:00,50.4,46.6,30.10,East,86,2.0,5.0,87,0.00,,,0.00,0.0,meteohub,2013-05-03 13:47:00,
2013-05-03 03:52:00,50.4,46.6,30.10,East,84,5.0,5.0,87,0.00,,,0.00,0.0,meteohub,2013-05-03 13:52:00,
2013-05-03 03:57:00,51.3,47.3,30.11,East,92,2.0,7.0,86,0.00,,,0.00,0.0,meteohub,2013-05-03 13:57:00,
2013-05-03 04:02:00,51.8,47.1,30.11,East,80,3.0,7.0,84,0.00,,,0.00,0.0,meteohub,2013-05-03 14:02:00,
2013-05-03 04:07:00,52.2,47.5,30.11,East,80,3.0,7.0,84,0.00,,,0.00,0.0,meteohub,2013-05-03 14:07:00,
2013-05-03 04:12:00,52.0,47.3,30.11,ENE,70,3.0,7.0,84,0.00,,,0.00,0.0,meteohub,2013-05-03 14:12:00,
2013-05-03 04:17:00,51.8,46.8,30.11,ENE,75,4.0,6.0,83,0.00,,,0.00,0.0,meteohub,2013-05-03 14:17:00,
2013-05-03 04:22:00,51.6,46.6,30.11,East,84,2.0,6.0,83,0.00,,,0.00,0.0,meteohub,2013-05-03 14:22:00,
2013-05-03 04:27:00,52.0,46.6,30.11,East,80,2.0,7.0,82,0.00,,,0.00,0.0,meteohub,2013-05-03 14:27:00,
2013-05-03 04:32:00,51.3,46.2,30.12,East,82,3.0,7.0,83,0.00,,,0.00,0.0,meteohub,2013-05-03 14:32:00,
2013-05-03 04:37:00,51.3,46.9,30.12,East,80,5.0,7.0,85,0.00,,,0.00,0.0,meteohub,2013-05-03 14:37:00,
2013-05-03 04:42:00,51.4,47.1,30.12,East,84,7.0,7.0,85,0.00,,,0.00,0.0,meteohub,2013-05-03 14:42:00,
2013-05-03 04:47:00,52.3,47.7,30.12,East,82,3.0,7.0,84,0.00,,,0.00,0.0,meteohub,2013-05-03 14:47:00,
2013-05-03 04:52:00,52.3,47.3,30.12,East,100,2.0,7.0,83,0.00,,,0.00,0.0,meteohub,2013-05-03 14:52:00,
2013-05-03 04:57:00,52.3,47.7,30.12,East,80,5.0,7.0,84,0.00,,,0.00,0.0,meteohub,2013-05-03 14:57:00,
2013-05-03 05:02:00,52.5,47.5,30.12,East,94,2.0,7.0,83,0.00,,,0.00,0.0,meteohub,2013-05-03 15:02:00,
2013-05-03 05:07:00,52.5,47.5,30.12,East,92,3.0,7.0,83,0.00,,,0.00,0.0,meteohub,2013-05-03 15:07:00,
2013-05-03 05:12:00,52.5,46.9,30.12,ENE,65,3.0,7.0,81,0.00,,,0.00,0.0,meteohub,2013-05-03 15:12:00,
2013-05-03 05:17:00,52.2,46.8,30.12,ENE,67,4.0,7.0,82,0.00,,,0.00,0.0,meteohub,2013-05-03 15:17:00,
2013-05-03 05:22:00,52.0,46.6,30.12,East,80,5.0,7.0,82,0.00,,,0.00,0.0,meteohub,2013-05-03 15:22:00,
2013-05-03 05:27:00,50.9,46.2,30.12,East,82,2.0,7.0,84,0.00,,,0.00,0.0,meteohub,2013-05-03 15:27:00,
2013-05-03 05:32:00,49.8,45.9,30.12,East,85,3.0,7.0,86,0.00,,,0.00,0.0,meteohub,2013-05-03 15:32:00,
2013-05-03 05:37:00,49.6,45.3,30.13,East,80,3.0,6.0,85,0.00,,,0.00,0.0,meteohub,2013-05-03 15:37:00,
2013-05-03 05:42:00,49.6,45.3,30.13,ENE,78,3.0,5.0,85,0.00,,,0.00,0.0,meteohub,2013-05-03 15:42:00,
2013-05-03 05:47:00,49.5,45.7,30.13,East,80,2.0,5.0,87,0.00,,,0.00,0.0,meteohub,2013-05-03 15:47:00,
2013-05-03 05:52:00,49.8,46.0,30.13,ENE,78,2.0,5.0,87,0.00,,,0.00,0.0,meteohub,2013-05-03 15:52:00,
2013-05-03 05:57:00,50.2,46.8,30.13,East,79,2.0,5.0,88,0.00,,,0.00,0.0,meteohub,2013-05-03 15:57:00,
2013-05-03 06:02:00,50.5,46.8,30.13,East,85,2.0,5.0,87,0.00,,,0.00,5.0,meteohub,2013-05-03 16:02:00,
2013-05-03 06:07:00,51.1,47.7,30.13,East,92,2.0,4.0,88,0.00,,,0.00,7.0,meteohub,2013-05-03 16:07:00,
2013-05-03 06:12:00,51.3,47.5,30.13,East,84,2.0,4.0,87,0.00,,,0.00,12.0,meteohub,2013-05-03 16:12:00,
2013-05-03 06:17:00,51.6,47.8,30.13,ENE,78,3.0,5.0,87,0.00,,,0.00,12.0,meteohub,2013-05-03 16:17:00,
2013-05-03 06:22:00,52.2,48.0,30.13,East,98,5.0,5.0,86,0.00,,,0.00,16.0,meteohub,2013-05-03 16:22:00,
2013-05-03 06:27:00,52.7,48.4,30.14,ENE,75,3.0,7.0,85,0.00,,,0.00,18.0,meteohub,2013-05-03 16:27:00,
2013-05-03 06:32:00,52.3,47.7,30.13,East,84,2.0,8.0,84,0.00,,,0.00,19.0,meteohub,2013-05-03 16:32:00,
2013-05-03 06:37:00,51.8,47.5,30.14,East,83,3.0,8.0,85,0.00,,,0.00,21.0,meteohub,2013-05-03 16:37:00,
2013-05-03 06:42:00,51.8,47.5,30.14,East,83,2.0,5.0,85,0.00,,,0.00,23.0,meteohub,2013-05-03 16:42:00,
2013-05-03 06:47:00,52.2,47.1,30.14,ENE,76,2.0,6.0,83,0.00,,,0.00,25.0,meteohub,2013-05-03 16:47:00,
2013-05-03 06:52:00,52.2,47.1,30.14,East,80,1.0,6.0,83,0.00,,,0.00,26.0,meteohub,2013-05-03 16:52:00,
2013-05-03 06:57:00,51.4,47.1,30.14,East,85,2.0,6.0,85,0.00,,,0.00,30.0,meteohub,2013-05-03 16:57:00,
2013-05-03 07:02:00,51.6,47.8,30.14,ENE,77,2.0,5.0,87,0.00,,,0.00,32.0,meteohub,2013-05-03 17:02:00,
2013-05-03 07:07:00,52.5,47.8,30.14,ENE,77,1.0,5.0,84,0.00,,,0.00,33.0,meteohub,2013-05-03 17:07:00,
2013-05-03 07:12:00,52.9,48.2,30.14,East,86,0.0,5.0,84,0.00,,,0.00,37.0,meteohub,2013-05-03 17:12:00,
2013-05-03 07:17:00,52.7,48.6,30.15,East,84,1.0,5.0,86,0.00,,,0.00,40.0,meteohub,2013-05-03 17:17:00,
2013-05-03 07:22:00,53.2,49.5,30.14,East,100,2.0,3.0,87,0.00,,,0.00,40.0,meteohub,2013-05-03 17:22:00,
2013-05-03 07:27:00,53.8,50.0,30.15,East,99,1.0,3.0,87,0.00,,,0.00,42.0,meteohub,2013-05-03 17:27:00,
2013-05-03 07:33:00,54.3,50.9,30.15,East,99,0.0,3.0,88,0.00,,,0.00,39.0,meteohub,2013-05-03 17:33:00,
2013-05-03 07:38:00,55.2,52.3,30.15,East,99,0.0,3.0,90,0.00,,,0.00,40.0,meteohub,2013-05-03 17:38:00,
2013-05-03 07:43:00,56.7,54.7,30.15,East,100,0.0,2.0,93,0.00,,,0.00,42.0,meteohub,2013-05-03 17:43:00,
2013-05-03 07:48:00,57.6,54.3,30.15,East,95,0.0,1.0,89,0.00,,,0.00,44.0,meteohub,2013-05-03 17:48:00,
2013-05-03 07:53:00,58.3,55.0,30.15,East,94,0.0,1.0,89,0.00,,,0.00,47.0,meteohub,2013-05-03 17:53:00,
2013-05-03 07:58:00,58.8,55.9,30.15,East,95,0.0,1.0,90,0.00,,,0.00,54.0,meteohub,2013-05-03 17:58:00,
2013-05-03 08:03:00,60.1,57.2,30.15,East,94,0.0,1.0,90,0.00,,,0.00,77.0,meteohub,2013-05-03 18:03:00,
2013-05-03 08:08:00,61.3,58.1,30.15,WNW,288,1.0,1.0,89,0.00,,,0.00,121.0,meteohub,2013-05-03 18:08:00,
2013-05-03 08:13:00,62.2,58.6,30.15,WNW,293,1.0,4.0,88,0.00,,,0.00,146.0,meteohub,2013-05-03 18:13:00,
2013-05-03 08:18:00,62.8,58.5,30.15,WSW,244,0.0,4.0,86,0.00,,,0.00,199.0,meteohub,2013-05-03 18:18:00,
2013-05-03 08:23:00,63.3,60.3,30.15,SW,223,1.0,4.0,90,0.00,,,0.00,265.0,meteohub,2013-05-03 18:23:00,
2013-05-03 08:28:00,63.3,60.3,30.15,NW,306,1.0,6.0,90,0.00,,,0.00,199.0,meteohub,2013-05-03 18:28:00,
2013-05-03 08:33:00,63.1,60.4,30.15,WNW,287,0.0,6.0,91,0.00,,,0.00,88.0,meteohub,2013-05-03 18:33:00,
2013-05-03 08:38:00,62.8,60.1,30.15,West,268,0.0,6.0,91,0.00,,,0.00,104.0,meteohub,2013-05-03 18:38:00,
2013-05-03 08:43:00,62.4,59.7,30.15,West,269,0.0,4.0,91,0.00,,,0.00,128.0,meteohub,2013-05-03 18:43:00,
2013-05-03 08:48:00,62.2,59.5,30.15,West,267,0.0,4.0,91,0.00,,,0.00,160.0,meteohub,2013-05-03 18:48:00,
2013-05-03 08:53:00,62.1,59.4,30.15,West,268,0.0,3.0,91,0.00,,,0.00,234.0,meteohub,2013-05-03 18:53:00,
2013-05-03 08:58:00,62.6,59.5,30.15,WSW,257,0.0,3.0,90,0.00,,,0.00,258.0,meteohub,2013-05-03 18:58:00,
2013-05-03 09:03:00,63.7,60.6,30.15,WSW,237,1.0,3.0,90,0.00,,,0.00,285.0,meteohub,2013-05-03 19:03:00,
2013-05-03 09:08:00,64.0,60.8,30.15,West,270,0.0,5.0,89,0.00,,,0.00,257.0,meteohub,2013-05-03 19:08:00,
2013-05-03 09:13:00,64.0,60.8,30.15,WSW,257,4.0,5.0,89,0.00,,,0.00,163.0,meteohub,2013-05-03 19:13:00,
2013-05-03 09:18:00,63.7,60.6,30.15,West,279,1.0,5.0,90,0.00,,,0.00,160.0,meteohub,2013-05-03 19:18:00,
2013-05-03 09:23:00,63.3,60.3,30.15,SW,236,2.0,5.0,90,0.00,,,0.00,179.0,meteohub,2013-05-03 19:23:00,
2013-05-03 09:29:00,63.0,60.3,30.15,WSW,239,1.0,5.0,91,0.00,,,0.00,239.0,meteohub,2013-05-03 19:29:00,
2013-05-03 09:34:00,62.8,60.1,30.14,WSW,239,0.0,4.0,91,0.00,,,0.00,272.0,meteohub,2013-05-03 19:34:00,
2013-05-03 09:39:00,63.1,60.1,30.14,WSW,240,1.0,4.0,90,0.00,,,0.00,253.0,meteohub,2013-05-03 19:39:00,
2013-05-03 09:44:00,63.7,59.7,30.14,WSW,248,1.0,3.0,87,0.00,,,0.00,207.0,meteohub,2013-05-03 19:44:00,
2013-05-03 09:49:00,64.0,60.8,30.14,West,270,4.0,4.0,89,0.00,,,0.00,346.0,meteohub,2013-05-03 19:49:00,
2013-05-03 09:54:00,64.0,60.8,30.14,West,279,5.0,5.0,89,0.00,,,0.00,225.0,meteohub,2013-05-03 19:54:00,
2013-05-03 09:59:00,63.9,60.6,30.14,WSW,239,0.0,6.0,89,0.00,,,0.00,223.0,meteohub,2013-05-03 19:59:00,
2013-05-03 10:05:00,63.9,60.6,30.14,West,259,1.0,6.0,89,0.00,,,0.00,211.0,meteohub,2013-05-03 20:05:00,
2013-05-03 10:10:00,63.9,60.6,30.14,West,265,0.0,5.0,89,0.00,,,0.00,251.0,meteohub,2013-05-03 20:10:00,
2013-05-03 10:15:00,64.0,60.4,30.14,WSW,252,0.0,5.0,88,0.00,,,0.00,255.0,meteohub,2013-05-03 20:15:00,
2013-05-03 10:20:00,64.2,60.3,30.14,WNW,286,0.0,3.0,87,0.00,,,0.00,213.0,meteohub,2013-05-03 20:20:00,
2013-05-03 10:25:00,64.4,61.2,30.14,West,277,0.0,3.0,89,0.00,,,0.00,118.0,meteohub,2013-05-03 20:25:00,
2013-05-03 10:30:00,64.2,61.0,30.14,WNW,288,2.0,3.0,89,0.00,,,0.00,158.0,meteohub,2013-05-03 20:30:00,
2013-05-03 10:35:00,64.0,60.8,30.14,West,277,1.0,4.0,89,0.00,,,0.00,209.0,meteohub,2013-05-03 20:35:00,
2013-05-03 10:40:00,64.0,60.8,30.14,West,278,0.0,4.0,89,0.00,,,0.00,204.0,meteohub,2013-05-03 20:40:00,
2013-05-03 10:45:00,64.0,60.8,30.14,West,262,0.0,4.0,89,0.00,,,0.00,225.0,meteohub,2013-05-03 20:45:00,
2013-05-03 10:50:00,64.2,61.2,30.14,WSW,243,0.0,4.0,90,0.00,,,0.00,230.0,meteohub,2013-05-03 20:50:00,
2013-05-03 10:55:00,64.2,60.3,30.14,NW,312,1.0,4.0,87,0.00,,,0.00,204.0,meteohub,2013-05-03 20:55:00,
2013-05-03 11:00:00,64.2,60.6,30.14,West,274,1.0,4.0,88,0.00,,,0.00,153.0,meteohub,2013-05-03 21:00:00,
2013-05-03 11:05:00,64.2,60.6,30.14,West,273,0.0,6.0,88,0.00,,,0.00,125.0,meteohub,2013-05-03 21:05:00,
2013-05-03 11:10:00,64.0,60.8,30.14,NW,323,1.0,6.0,89,0.00,,,0.00,218.0,meteohub,2013-05-03 21:10:00,
2013-05-03 11:15:00,64.2,61.0,30.14,SW,233,1.0,6.0,89,0.00,,,0.00,346.0,meteohub,2013-05-03 21:15:00,
2013-05-03 11:20:00,64.2,61.0,30.13,West,275,1.0,5.0,89,0.00,,,0.00,278.0,meteohub,2013-05-03 21:20:00,
2013-05-03 11:25:00,64.6,60.6,30.13,SW,229,0.0,4.0,87,0.00,,,0.00,355.0,meteohub,2013-05-03 21:25:00,
2013-05-03 11:31:00,64.6,60.6,30.13,WNW,288,5.0,5.0,87,0.00,,,0.00,220.0,meteohub,2013-05-03 21:31:00,
2013-05-03 11:36:00,64.9,60.6,30.13,West,275,1.0,6.0,86,0.00,,,0.00,237.0,meteohub,2013-05-03 21:36:00,
2013-05-03 11:41:00,64.9,60.3,30.12,West,278,0.0,6.0,85,0.00,,,0.00,204.0,meteohub,2013-05-03 21:41:00,
2013-05-03 11:46:00,65.5,61.2,30.12,West,276,1.0,6.0,86,0.00,,,0.00,134.0,meteohub,2013-05-03 21:46:00,
2013-05-03 11:51:00,65.5,61.2,30.12,West,275,0.0,4.0,86,0.00,,,0.00,104.0,meteohub,2013-05-03 21:51:00,
2013-05-03 11:56:00,65.5,60.8,30.12,West,268,0.0,2.0,85,0.00,,,0.00,114.0,meteohub,2013-05-03 21:56:00,
2013-05-03 12:01:00,65.3,60.6,30.12,West,273,0.0,3.0,85,0.00,,,0.00,153.0,meteohub,2013-05-03 22:01:00,
2013-05-03 12:06:00,65.1,60.4,30.12,West,274,0.0,3.0,85,0.00,,,0.00,156.0,meteohub,2013-05-03 22:06:00,
2013-05-03 12:11:00,65.3,61.0,30.11,West,266,0.0,3.0,86,0.00,,,0.00,172.0,meteohub,2013-05-03 22:11:00,
2013-05-03 12:16:00,65.3,60.6,30.11,West,274,0.0,3.0,85,0.00,,,0.00,209.0,meteohub,2013-05-03 22:16:00,
2013-05-03 12:21:00,65.5,60.8,30.10,West,278,1.0,4.0,85,0.00,,,0.00,258.0,meteohub,2013-05-03 22:21:00,
2013-05-03 12:26:00,65.5,60.8,30.10,West,278,1.0,4.0,85,0.00,,,0.00,309.0,meteohub,2013-05-03 22:26:00,
2013-05-03 12:31:00,65.7,61.7,30.10,SW,234,1.0,5.0,87,0.00,,,0.00,302.0,meteohub,2013-05-03 22:31:00,
2013-05-03 12:37:00,65.8,61.2,30.10,WNW,294,3.0,6.0,85,0.00,,,0.00,283.0,meteohub,2013-05-03 22:37:00,
2013-05-03 12:42:00,66.0,61.3,30.10,West,269,2.0,6.0,85,0.00,,,0.00,327.0,meteohub,2013-05-03 22:42:00,
2013-05-03 12:47:00,66.2,61.5,30.10,WSW,252,0.0,6.0,85,0.00,,,0.00,316.0,meteohub,2013-05-03 22:47:00,
2013-05-03 12:52:00,66.4,61.3,30.09,WSW,244,2.0,5.0,84,0.00,,,0.00,269.0,meteohub,2013-05-03 22:52:00,
2013-05-03 12:57:00,66.4,61.0,30.09,West,281,0.0,4.0,83,0.00,,,0.00,220.0,meteohub,2013-05-03 22:57:00,
2013-05-03 13:02:00,66.4,61.0,30.09,WSW,244,0.0,4.0,83,0.00,,,0.00,137.0,meteohub,2013-05-03 23:02:00,
2013-05-03 13:07:00,66.2,60.8,30.09,SW,236,1.0,5.0,83,0.00,,,0.00,137.0,meteohub,2013-05-03 23:07:00,
2013-05-03 13:12:00,66.0,61.0,30.09,West,261,1.0,5.0,84,0.00,,,0.00,144.0,meteohub,2013-05-03 23:12:00,
2013-05-03 13:17:00,65.8,60.8,30.09,West,275,0.0,6.0,84,0.00,,,0.00,102.0,meteohub,2013-05-03 23:17:00,
2013-05-03 13:22:00,65.8,60.6,30.09,WSW,246,3.0,6.0,83,0.00,,,0.00,95.0,meteohub,2013-05-03 23:22:00,
2013-05-03 13:27:00,65.7,61.0,30.09,West,269,0.0,5.0,85,0.00,,,0.00,83.0,meteohub,2013-05-03 23:27:00,
2013-05-03 13:32:00,65.5,61.2,30.09,SW,230,2.0,5.0,86,0.00,,,0.00,79.0,meteohub,2013-05-03 23:32:00,
2013-05-03 13:37:00,65.1,60.4,30.09,WNW,288,1.0,5.0,85,0.00,,,0.00,83.0,meteohub,2013-05-03 23:37:00,
2013-05-03 13:42:00,64.8,60.4,30.09,SW,234,5.0,5.0,86,0.00,,,0.00,132.0,meteohub,2013-05-03 23:42:00,
2013-05-03 13:47:00,64.8,60.4,30.08,West,276,5.0,6.0,86,0.00,,,0.00,221.0,meteohub,2013-05-03 23:47:00,
2013-05-03 13:52:00,64.9,61.0,30.08,WNW,300,3.0,6.0,87,0.00,,,0.00,392.0,meteohub,2013-05-03 23:52:00,
2013-05-03 13:57:00,65.1,60.8,30.08,WNW,303,3.0,6.0,86,0.00,,,0.00,411.0,meteohub,2013-05-03 23:57:00,
2013-05-03 14:02:00,65.7,61.0,30.08,WSW,238,0.0,6.0,85,0.00,,,0.00,411.0,meteohub,2013-05-04 00:02:00,
2013-05-03 14:07:00,66.0,61.0,30.07,WNW,295,2.0,6.0,84,0.00,,,0.00,366.0,meteohub,2013-05-04 00:07:00,
2013-05-03 14:12:00,66.4,61.0,30.07,West,275,0.0,5.0,83,0.00,,,0.00,455.0,meteohub,2013-05-04 00:12:00,
2013-05-03 14:17:00,66.9,61.9,30.07,West,260,1.0,5.0,84,0.00,,,0.00,390.0,meteohub,2013-05-04 00:17:00,
2013-05-03 14:22:00,66.9,61.5,30.07,South,184,0.0,6.0,83,0.00,,,0.00,285.0,meteohub,2013-05-04 00:22:00,
2013-05-03 14:27:00,66.9,61.2,30.07,WSW,257,2.0,7.0,82,0.00,,,0.00,278.0,meteohub,2013-05-04 00:27:00,
2013-05-03 14:32:00,66.9,61.0,30.07,West,275,3.0,7.0,81,0.00,,,0.00,346.0,meteohub,2013-05-04 00:32:00,
2013-05-03 14:37:00,67.1,61.3,30.07,WSW,246,3.0,7.0,82,0.00,,,0.00,267.0,meteohub,2013-05-04 00:37:00,
2013-05-03 14:42:00,66.9,61.2,30.07,West,279,2.0,8.0,82,0.00,,,0.00,197.0,meteohub,2013-05-04 00:42:00,
2013-05-03 14:47:00,66.9,61.2,30.07,West,267,0.0,8.0,82,0.00,,,0.00,246.0,meteohub,2013-05-04 00:47:00,
2013-05-03 14:52:00,66.7,61.0,30.06,WNW,282,1.0,6.0,82,0.00,,,0.00,366.0,meteohub,2013-05-04 00:52:00,
2013-05-03 14:58:00,66.6,61.2,30.06,West,280,0.0,5.0,83,0.00,,,0.00,234.0,meteohub,2013-05-04 00:58:00,
2013-05-03 15:03:00,66.6,61.2,30.06,WNW,299,1.0,4.0,83,0.00,,,0.00,169.0,meteohub,2013-05-04 01:03:00,
2013-05-03 15:08:00,66.6,61.0,30.06,WSW,245,1.0,4.0,82,0.00,,,0.00,142.0,meteohub,2013-05-04 01:08:00,
2013-05-03 15:13:00,66.4,60.8,30.06,West,267,0.0,5.0,82,0.00,,,0.00,114.0,meteohub,2013-05-04 01:13:00,
2013-05-03 15:18:00,66.4,60.8,30.06,SW,235,2.0,5.0,82,0.00,,,0.00,139.0,meteohub,2013-05-04 01:18:00,
2013-05-03 15:23:00,66.4,60.8,30.06,West,261,1.0,5.0,82,0.00,,,0.00,160.0,meteohub,2013-05-04 01:23:00,
2013-05-03 15:28:00,66.4,60.8,30.06,West,275,1.0,6.0,82,0.00,,,0.00,258.0,meteohub,2013-05-04 01:28:00,
2013-05-03 15:33:00,66.6,60.6,30.06,West,276,0.0,6.0,81,0.00,,,0.00,329.0,meteohub,2013-05-04 01:33:00,
2013-05-03 15:38:00,66.9,61.0,30.06,NW,306,3.0,6.0,81,0.00,,,0.00,364.0,meteohub,2013-05-04 01:38:00,
2013-05-03 15:43:00,67.3,61.2,30.06,WNW,284,5.0,7.0,81,0.00,,,0.00,311.0,meteohub,2013-05-04 01:43:00,
2013-05-03 15:48:00,67.5,60.8,30.06,WNW,286,1.0,7.0,79,0.00,,,0.00,223.0,meteohub,2013-05-04 01:48:00,
2013-05-03 15:53:00,67.3,61.0,30.06,SSW,204,5.0,7.0,80,0.00,,,0.00,160.0,meteohub,2013-05-04 01:53:00,
2013-05-03 15:58:00,66.9,60.6,30.06,WSW,252,0.0,7.0,80,0.00,,,0.00,155.0,meteohub,2013-05-04 01:58:00,
2013-05-03 16:03:00,66.7,60.1,30.06,SW,219,1.0,7.0,79,0.00,,,0.00,174.0,meteohub,2013-05-04 02:03:00,
2013-05-03 16:08:00,66.6,60.3,30.07,West,265,2.0,7.0,80,0.00,,,0.00,97.0,meteohub,2013-05-04 02:08:00,
2013-05-03 16:13:00,66.6,60.3,30.07,SW,223,3.0,4.0,80,0.00,,,0.00,88.0,meteohub,2013-05-04 02:13:00,
2013-05-03 16:18:00,66.4,60.1,30.06,South,178,2.0,8.0,80,0.00,,,0.00,91.0,meteohub,2013-05-04 02:18:00,
2013-05-03 16:23:00,66.2,59.9,30.07,South,178,0.0,8.0,80,0.00,,,0.00,83.0,meteohub,2013-05-04 02:23:00,
2013-05-03 16:28:00,66.0,60.1,30.07,West,263,0.0,8.0,81,0.00,,,0.00,77.0,meteohub,2013-05-04 02:28:00,
2013-05-03 16:33:00,65.8,59.9,30.07,West,264,1.0,6.0,81,0.00,,,0.00,77.0,meteohub,2013-05-04 02:33:00,
2013-05-03 16:38:00,65.5,59.9,30.07,West,263,1.0,6.0,82,0.00,,,0.00,97.0,meteohub,2013-05-04 02:38:00,
2013-05-03 16:43:00,65.5,59.5,30.07,WNW,292,1.0,6.0,81,0.00,,,0.00,141.0,meteohub,2013-05-04 02:43:00,
2013-05-03 16:48:00,65.5,59.9,30.07,West,261,0.0,3.0,82,0.00,,,0.00,339.0,meteohub,2013-05-04 02:48:00,
2013-05-03 16:53:00,65.8,59.5,30.06,West,273,0.0,3.0,80,0.00,,,0.00,193.0,meteohub,2013-05-04 02:53:00,
2013-05-03 16:58:00,66.0,59.7,30.06,WSW,240,1.0,7.0,80,0.00,,,0.00,197.0,meteohub,2013-05-04 02:58:00,
2013-05-03 17:03:00,66.4,60.4,30.07,SW,219,3.0,7.0,81,0.00,,,0.00,482.0,meteohub,2013-05-04 03:03:00,
2013-05-03 17:08:00,66.7,60.4,30.07,West,259,2.0,7.0,80,0.00,,,0.00,163.0,meteohub,2013-05-04 03:08:00,
2013-05-03 17:17:00,66.4,60.1,30.07,West,277,0.0,4.0,80,0.00,,,0.00,105.0,meteohub,2013-05-04 03:17:00,
2013-05-03 17:22:00,65.8,59.5,30.07,WNW,290,0.0,7.0,80,0.00,,,0.00,79.0,meteohub,2013-05-04 03:22:00,
2013-05-03 17:27:00,65.7,59.7,30.07,WSW,242,0.0,7.0,81,0.00,,,0.00,70.0,meteohub,2013-05-04 03:27:00,
2013-05-03 17:32:00,65.7,59.7,30.07,West,266,2.0,7.0,81,0.00,,,0.00,63.0,meteohub,2013-05-04 03:32:00,
2013-05-03 17:37:00,65.5,59.9,30.07,WSW,254,0.0,3.0,82,0.00,,,0.00,56.0,meteohub,2013-05-04 03:37:00,
2013-05-03 17:42:00,65.1,59.9,30.07,SW,232,0.0,4.0,83,0.00,,,0.00,40.0,meteohub,2013-05-04 03:42:00,
2013-05-03 17:47:00,64.9,59.7,30.07,SW,233,1.0,4.0,83,0.00,,,0.00,39.0,meteohub,2013-05-04 03:47:00,
2013-05-03 17:52:00,64.8,59.5,30.07,WSW,240,0.0,4.0,83,0.00,,,0.00,37.0,meteohub,2013-05-04 03:52:00,
2013-05-03 17:57:00,64.6,59.4,30.07,WSW,239,0.0,3.0,83,0.00,,,0.00,7.0,meteohub,2013-05-04 03:57:00,
2013-05-03 18:01:00,64.2,59.4,30.07,West,269,1.0,3.0,84,0.00,,,0.00,9.0,meteohub,2013-05-04 04:01:00,
2013-05-03 18:03:00,64.2,59.4,30.07,WNW,292,0.0,3.0,84,0.00,,,0.00,11.0,meteohub,2013-05-04 04:03:00,
2013-05-03 18:08:00,64.0,59.4,30.07,West,265,0.0,4.0,85,0.00,,,0.00,11.0,meteohub,2013-05-04 04:08:00,
2013-05-03 18:13:00,63.9,59.0,30.07,WSW,254,0.0,4.0,84,0.00,,,0.00,7.0,meteohub,2013-05-04 04:13:00,
2013-05-03 18:18:00,63.7,59.0,30.08,West,269,0.0,4.0,85,0.00,,,0.00,7.0,meteohub,2013-05-04 04:18:00,
2013-05-03 18:24:00,63.3,59.0,30.08,West,269,0.0,5.0,86,0.00,,,0.00,9.0,meteohub,2013-05-04 04:24:00,
2013-05-03 18:29:00,63.1,58.8,30.08,West,269,0.0,5.0,86,0.00,,,0.00,11.0,meteohub,2013-05-04 04:29:00,
2013-05-03 18:34:00,63.1,59.2,30.08,West,267,0.0,3.0,87,0.00,,,0.00,19.0,meteohub,2013-05-04 04:34:00,
2013-05-03 18:39:00,63.0,59.0,30.08,West,266,0.0,3.0,87,0.00,,,0.00,9.0,meteohub,2013-05-04 04:39:00,
2013-05-03 18:44:00,63.0,59.4,30.08,West,268,0.0,3.0,88,0.00,,,0.00,0.0,meteohub,2013-05-04 04:44:00,
2013-05-03 18:49:00,62.8,59.2,30.08,WNW,288,0.0,2.0,88,0.00,,,0.00,0.0,meteohub,2013-05-04 04:49:00,
2013-05-03 18:54:00,62.4,58.8,30.08,WNW,288,0.0,3.0,88,0.00,,,0.00,0.0,meteohub,2013-05-04 04:54:00,
2013-05-03 18:59:00,62.2,59.0,30.09,West,265,0.0,3.0,89,0.00,,,0.00,0.0,meteohub,2013-05-04 04:59:00,
2013-05-03 19:04:00,62.1,58.8,30.09,West,267,0.0,4.0,89,0.00,,,0.00,0.0,meteohub,2013-05-04 05:04:00,
2013-05-03 19:09:00,61.9,58.6,30.09,West,267,0.0,4.0,89,0.00,,,0.00,0.0,meteohub,2013-05-04 05:09:00,
2013-05-03 19:14:00,61.5,58.3,30.09,West,266,1.0,4.0,89,0.00,,,0.00,0.0,meteohub,2013-05-04 05:14:00,
2013-05-03 19:20:00,61.5,58.6,30.09,West,266,0.0,2.0,90,0.00,,,0.00,0.0,meteohub,2013-05-04 05:20:00,
2013-05-03 19:25:00,61.3,58.6,30.09,West,266,0.0,2.0,91,0.00,,,0.00,0.0,meteohub,2013-05-04 05:25:00,
2013-05-03 19:30:00,61.3,58.6,30.09,West,267,0.0,2.0,91,0.00,,,0.00,0.0,meteohub,2013-05-04 05:30:00,
2013-05-03 19:35:00,61.2,58.8,30.09,West,266,0.0,2.0,92,0.00,,,0.00,0.0,meteohub,2013-05-04 05:35:00,
2013-05-03 19:40:00,61.2,58.8,30.09,West,267,0.0,2.0,92,0.00,,,0.00,0.0,meteohub,2013-05-04 05:40:00,
2013-05-03 19:45:00,61.2,58.8,30.10,West,267,0.0,1.0,92,0.00,,,0.00,0.0,meteohub,2013-05-04 05:45:00,
2013-05-03 19:51:00,61.2,59.2,30.10,West,266,0.0,1.0,93,0.00,,,0.00,0.0,meteohub,2013-05-04 05:51:00,
2013-05-03 19:56:00,61.0,59.0,30.10,West,266,0.0,1.0,93,0.00,,,0.00,0.0,meteohub,2013-05-04 05:56:00,
2013-05-03 20:01:00,61.0,59.0,30.10,West,267,0.0,1.0,93,0.00,,,0.00,0.0,meteohub,2013-05-04 06:01:00,
2013-05-03 20:06:00,61.0,59.0,30.10,West,266,0.0,0.0,93,0.00,,,0.00,0.0,meteohub,2013-05-04 06:06:00,
2013-05-03 20:11:00,61.0,59.0,30.10,West,266,0.0,0.0,93,0.00,,,0.00,0.0,meteohub,2013-05-04 06:11:00,
2013-05-03 20:16:00,60.8,58.8,30.10,West,267,0.0,1.0,93,0.00,,,0.00,0.0,meteohub,2013-05-04 06:16:00,
2013-05-03 20:21:00,60.8,58.8,30.10,West,266,0.0,1.0,93,0.00,,,0.00,0.0,meteohub,2013-05-04 06:21:00,
2013-05-03 20:26:00,60.8,58.8,30.10,West,267,0.0,0.0,93,0.00,,,0.00,0.0,meteohub,2013-05-04 06:26:00,
2013-05-03 20:33:00,60.6,58.8,30.10,West,265,0.0,0.0,94,0.00,,,0.00,0.0,meteohub,2013-05-04 06:33:00,
2013-05-03 20:38:00,60.6,58.8,30.10,West,266,0.0,0.0,94,0.00,,,0.00,0.0,meteohub,2013-05-04 06:38:00,
2013-05-03 20:43:00,60.6,58.8,30.11,West,267,0.0,0.0,94,0.00,,,0.00,0.0,meteohub,2013-05-04 06:43:00,
2013-05-03 20:48:00,60.4,58.6,30.11,West,266,0.0,0.0,94,0.00,,,0.00,0.0,meteohub,2013-05-04 06:48:00,
2013-05-03 20:53:00,60.4,58.6,30.10,West,265,0.0,0.0,94,0.00,,,0.00,0.0,meteohub,2013-05-04 06:53:00,
2013-05-03 20:58:00,60.4,58.6,30.11,West,266,0.0,0.0,94,0.00,,,0.00,0.0,meteohub,2013-05-04 06:58:00,
2013-05-03 21:03:00,60.4,58.6,30.11,West,266,0.0,0.0,94,0.00,,,0.00,0.0,meteohub,2013-05-04 07:03:00,
2013-05-03 21:08:00,60.4,58.6,30.11,West,265,0.0,0.0,94,0.00,,,0.00,0.0,meteohub,2013-05-04 07:08:00,
2013-05-03 21:13:00,60.4,58.6,30.11,West,265,0.0,0.0,94,0.00,,,0.00,0.0,meteohub,2013-05-04 07:13:00,
2013-05-03 21:18:00,60.3,58.5,30.11,West,265,0.0,0.0,94,0.00,,,0.00,0.0,meteohub,2013-05-04 07:18:00,
2013-05-03 21:23:00,60.3,58.5,30.11,West,267,0.0,0.0,94,0.00,,,0.00,0.0,meteohub,2013-05-04 07:23:00,
2013-05-03 21:28:00,60.1,58.3,30.11,West,265,0.0,0.0,94,0.00,,,0.00,0.0,meteohub,2013-05-04 07:28:00,
2013-05-03 21:33:00,60.1,58.3,30.11,West,267,0.0,0.0,94,0.00,,,0.00,0.0,meteohub,2013-05-04 07:33:00,
2013-05-03 21:38:00,59.7,57.9,30.11,West,266,0.0,0.0,94,0.00,,,0.00,0.0,meteohub,2013-05-04 07:38:00,
2013-05-03 21:43:00,59.5,57.7,30.11,West,266,0.0,0.0,94,0.00,,,0.00,0.0,meteohub,2013-05-04 07:43:00,
2013-05-03 21:48:00,59.2,57.4,30.11,West,266,0.0,1.0,94,0.00,,,0.00,0.0,meteohub,2013-05-04 07:48:00,
2013-05-03 21:53:00,58.6,56.8,30.11,West,266,0.0,1.0,94,0.00,,,0.00,0.0,meteohub,2013-05-04 07:53:00,
2013-05-03 21:59:00,57.9,55.9,30.12,West,265,0.0,1.0,93,0.00,,,0.00,0.0,meteohub,2013-05-04 07:59:00,
2013-05-03 22:04:00,57.0,54.7,30.12,NE,54,1.0,1.0,92,0.00,,,0.00,0.0,meteohub,2013-05-04 08:04:00,
2013-05-03 22:09:00,56.7,54.3,30.12,East,98,1.0,2.0,92,0.00,,,0.00,0.0,meteohub,2013-05-04 08:09:00,
2013-05-03 22:14:00,56.3,53.4,30.12,ESE,115,2.0,3.0,90,0.00,,,0.00,0.0,meteohub,2013-05-04 08:14:00,
2013-05-03 22:20:00,56.5,53.2,30.12,ESE,104,1.0,4.0,89,0.00,,,0.00,0.0,meteohub,2013-05-04 08:20:00,
2013-05-03 22:25:00,56.3,53.1,30.12,East,100,1.0,4.0,89,0.00,,,0.00,0.0,meteohub,2013-05-04 08:25:00,
2013-05-03 22:30:00,56.1,52.7,30.12,East,90,0.0,4.0,88,0.00,,,0.00,0.0,meteohub,2013-05-04 08:30:00,
2013-05-03 22:35:00,55.9,52.7,30.12,ESE,109,2.0,3.0,89,0.00,,,0.00,0.0,meteohub,2013-05-04 08:35:00,
2013-05-03 22:40:00,55.8,52.5,30.12,ESE,102,2.0,3.0,89,0.00,,,0.00,0.0,meteohub,2013-05-04 08:40:00,
2013-05-03 22:45:00,55.8,52.5,30.12,ESE,116,2.0,2.0,89,0.00,,,0.00,0.0,meteohub,2013-05-04 08:45:00,
2013-05-03 22:50:00,55.8,52.9,30.12,ESE,105,1.0,3.0,90,0.00,,,0.00,0.0,meteohub,2013-05-04 08:50:00,
2013-05-03 22:55:00,55.8,52.9,30.11,ESE,103,0.0,3.0,90,0.00,,,0.00,0.0,meteohub,2013-05-04 08:55:00,
2013-05-03 23:00:00,55.6,52.7,30.11,ESE,104,1.0,3.0,90,0.00,,,0.00,0.0,meteohub,2013-05-04 09:00:00,
2013-05-03 23:05:00,55.4,52.5,30.11,East,92,2.0,2.0,90,0.00,,,0.00,0.0,meteohub,2013-05-04 09:05:00,
2013-05-03 23:10:00,55.2,52.3,30.11,East,100,3.0,3.0,90,0.00,,,0.00,0.0,meteohub,2013-05-04 09:10:00,
2013-05-03 23:15:00,55.4,52.2,30.11,ESE,118,3.0,3.0,89,0.00,,,0.00,0.0,meteohub,2013-05-04 09:15:00,
2013-05-03 23:20:00,55.6,52.2,30.11,ESE,109,1.0,5.0,88,0.00,,,0.00,0.0,meteohub,2013-05-04 09:20:00,
2013-05-03 23:25:00,55.8,52.3,30.11,ESE,116,2.0,5.0,88,0.00,,,0.00,0.0,meteohub,2013-05-04 09:25:00,
2013-05-03 23:30:00,55.9,52.5,30.11,SE,128,1.0,5.0,88,0.00,,,0.00,0.0,meteohub,2013-05-04 09:30:00,
2013-05-03 23:35:00,56.1,52.7,30.11,SE,130,1.0,4.0,88,0.00,,,0.00,0.0,meteohub,2013-05-04 09:35:00,
2013-05-03 23:40:00,55.9,52.5,30.10,SE,134,1.0,4.0,88,0.00,,,0.00,0.0,meteohub,2013-05-04 09:40:00,
2013-05-03 23:45:00,55.9,52.5,30.10,East,101,0.0,3.0,88,0.00,,,0.00,0.0,meteohub,2013-05-04 09:45:00,
2013-05-03 23:50:00,55.9,52.2,30.10,East,101,0.0,3.0,87,0.00,,,0.00,0.0,meteohub,2013-05-04 09:50:00,
2013-05-03 23:55:00,55.6,52.2,30.10,East,101,0.0,3.0,88,0.00,,,0.00,0.0,meteohub,2013-05-04 09:55:00,